Location: Bruderhein
(53.8035°N, 112.9265°W)
Time: 08:32:33
(UTC+00:00)

COSMOS 2251 DEB - Visible Passes

Search period start: 06 December 2023 00:00
Search period end: 16 December 2023 00:00
Orbit: 762 x 787 km, 73.9° (Epoch: 26 November)

Date Brightness Start Highest point End Pass type
(mag) Time Alt. Az. Time Alt. Az. Time Alt. Az.
06 Dec ? 10:47:23 17° NE 10:47:23 17° NE 10:48:49 10° NE visible
06 Dec ? 12:27:49 36° N 12:27:49 36° N 12:31:19 10° NNE visible
06 Dec ? 14:08:15 14° NW 14:09:41 16° NNW 14:12:51 10° N visible
07 Dec ? 11:53:45 28° NNE 11:53:45 28° NNE 11:56:14 10° NNE visible
07 Dec ? 13:34:10 20° NW 13:34:10 20° NW 13:37:57 10° N visible
08 Dec ? 11:19:35 19° NNE 11:19:35 19° NNE 11:21:05 10° NNE visible
08 Dec ? 13:00:00 22° NNW 13:00:00 22° NNW 13:03:00 10° NNE visible
08 Dec ? 14:42:23 10° NNW 14:42:53 10° NNW 14:43:25 10° NNW visible
09 Dec ? 10:45:22 13° NE 10:45:22 13° NE 10:45:51 10° NNE visible
09 Dec ? 12:25:47 22° N 12:25:47 22° N 12:27:59 10° NNE visible
09 Dec ? 14:06:12 12° NW 14:07:09 12° NNW 14:09:11 10° N visible
10 Dec ? 11:51:31 18° NNE 11:51:31 18° NNE 11:52:56 10° NNE visible
10 Dec ? 13:31:55 15° NNW 13:31:55 15° NNW 13:34:24 10° N visible
11 Dec ? 11:17:12 14° NNE 11:17:12 14° NNE 11:17:51 10° NNE visible
11 Dec ? 12:57:36 16° NNW 12:57:36 16° NNW 12:59:31 10° N visible
12 Dec ? 12:23:15 15° N 12:23:15 15° N 12:24:33 10° N visible
13 Dec ? 11:48:52 13° N 11:48:52 13° N 11:49:33 10° NNE visible
13 Dec ? 13:29:16 11° NNW 13:29:16 11° NNW 13:30:37 10° N visible
14 Dec ? 11:14:28 10° NNE 11:14:28 10° NNE 11:14:30 10° NNE visible
14 Dec ? 12:54:52 12° N 12:54:52 12° N 12:55:53 10° N visible
15 Dec ? 12:20:26 12° N 12:20:26 12° N 12:21:01 10° N visible
